Hourly Data Report for September 27, 2017

All times are specified in Local Standard Time (LST). Add 1 hour to adjust for Daylight Saving Time where and when it is observed.

ARCTIC BAY CS
NUNAVUT

72°59'34.000" N
85°00'44.000" W
10.00 m
2400404
71592
XAT

Download Data

Hourly Data (September 2017)
Hourly Data Report for September 27, 2017
Temp Definition
°C
Dew Point Temp Definition
°C
Rel Hum Definition
%
Wind Dir Definition
10's deg

Wind Spd Definition
km/h
Visibility Definition
km
Stn Press Definition
kPa
Hmdx Definition


Wind Chill Definition


Weather Definition


TIME
00:00 -3.8 -6.4 82 5 4   101.16   -5 LegendNANA
01:00 -4.0 -6.7 81 6 12   101.12   -9 LegendNANA
02:00 -5.2 -8.0 81 7 17   101.12   -11 LegendNANA
03:00 -5.3 -8.4 79 6 20   101.08   -12 LegendNANA
04:00 -5.6 -9.3 75 6 15   101.07   -11 LegendNANA
05:00 -4.9 -8.7 75 6 13   101.04   -10 LegendNANA
06:00 -4.3 -8.2 74 6 12   100.99   -9 LegendNANA
07:00 -3.2 -7.4 73 7 7   100.95   -6 LegendNANA
08:00 -4.1 -7.7 76 36 7   100.90   -7 LegendNANA
09:00 -2.5 -7.2 70 31 4   100.84   -4 LegendNANA
10:00 -2.4 -5.9 77 34 13   100.78   -7 LegendNANA
11:00 -2.1 -6.0 75 32 13   100.73   -7 LegendNANA
12:00 -1.9 -5.1 79 33 13   100.70   -6 LegendNANA
13:00 -1.8 -5.9 74 26 8   100.68   -5 LegendNANA
14:00 -1.7 -5.7 75 12 5   100.60   -4 LegendNANA
15:00 -1.8 -6.9 68 7 12   100.48   -6 LegendNANA
16:00 -1.1 -6.1 69 9 13   100.42   -5 LegendNANA
17:00 -1.0 -6.2 68 4 9   100.34   -4 LegendNANA
18:00 -1.3 -6.6 68 9 13   100.33   -6 LegendNANA
19:00 -2.4 -3.2 94 13 15   100.28   -7 LegendNANA
20:00 -2.5 -4.2 89 14 21   100.22   -9 LegendNANA
21:00 -2.2 -4.9 82 13 20   100.15   -8 LegendNANA
22:00 -1.8 -5.0 79 13 17   100.07   -7 LegendNANA
23:00 -1.4 -5.4 74 14 22   100.00   -7 LegendNANA

Notes on Data Quality.

Legend

  • E = Estimated
  • M = Missing
  • NA = Not Available
  • ‡ = Partner data that is not subject to review by the National Climate Archives
Date modified: